,,PA_Meas_PMT16A,,PR_Meas_QMR101_102,,RH_Meas_QMH101,,SR_Meas_QMS101,,TA_Meas_QMH101,,GenWind,,GenWind,
time,status,PA,status,PR,status,RH,status,SR,status,TA,status,DirAvg,status,SpdAvg,
2014-10-06, 00:00:04,VALID,919.565,VALID,0,VALID,96.7793,VALID,0,VALID,18.7488,VALID,19,VALID,0,
2014-10-06, 00:01:04,VALID,919.57,VALID,0,VALID,96.8021,VALID,0,VALID,18.7293,VALID,19,VALID,0,
2014-10-06, 00:02:04,VALID,919.542,VALID,0,VALID,96.8479,VALID,0,VALID,18.6903,VALID,19,VALID,0,
2014-10-06, 00:03:04,VALID,919.547,VALID,0,VALID,96.8707,VALID,0.107441,VALID,18.6694,VALID,19,VALID,0,
2014-10-06, 00:04:04,VALID,919.52,VALID,0,VALID,96.9012,VALID,0,VALID,18.6694,VALID,19,VALID,0,
2014-10-06, 00:05:04,VALID,919.545,VALID,0,VALID,96.9241,VALID,0,VALID,18.6304,VALID,19,VALID,0,
2014-10-06, 00:06:04,VALID,919.501,VALID,0,VALID,96.9775,VALID,0,VALID,18.6513,VALID,19,VALID,0,
2014-10-06, 00:07:04,VALID,919.49,VALID,0,VALID,96.9851,VALID,0,VALID,18.5914,VALID,19,VALID,0,
2014-10-06, 00:08:04,VALID,919.472,VALID,0,VALID,97.0156,VALID,0,VALID,18.5914,VALID,19,VALID,0,
2014-10-06, 00:09:04,VALID,919.469,VALID,0,VALID,97.0537,VALID,0.107441,VALID,18.572,VALID,19,VALID,0,
2014-10-06, 00:10:04,VALID,919.492,VALID,0,VALID,97.0613,VALID,0,VALID,18.6124,VALID,19,VALID,0,
2014-10-06, 00:11:04,VALID,919.473,VALID,0,VALID,97.0994,VALID,0,VALID,18.5914,VALID,19,VALID,0,
2014-10-06, 00:12:04,VALID,919.48,VALID,0,VALID,97.1223,VALID,0,VALID,18.5929,VALID,19,VALID,0,
2014-10-06, 00:13:04,VALID,919.454,VALID,0,VALID,97.1528,VALID,0,VALID,18.5929,VALID,19,VALID,0,
2014-10-06, 00:14:04,VALID,919.459,VALID,0,VALID,97.1604,VALID,0,VALID,18.5734,VALID,19,VALID,0,
2014-10-06, 00:15:04,VALID,919.423,VALID,0,VALID,97.1909,VALID,0,VALID,18.5929,VALID,19,VALID,0,
2014-10-06, 00:16:04,VALID,919.427,VALID,0,VALID,97.2062,VALID,0,VALID,18.5929,VALID,19,VALID,0,
2014-10-06, 00:17:04,VALID,919.409,VALID,0,VALID,97.2214,VALID,0,VALID,18.5914,VALID,19,VALID,0,
2014-10-06, 00:18:04,VALID,919.415,VALID,0,VALID,97.2595,VALID,0,VALID,18.5539,VALID,19,VALID,0,
2014-10-06, 00:19:04,VALID,919.399,VALID,0,VALID,97.2519,VALID,0,VALID,18.5539,VALID,19,VALID,0,
2014-10-06, 00:20:04,VALID,919.395,VALID,0,VALID,97.2672,VALID,0,VALID,18.5539,VALID,19,VALID,0,
2014-10-06, 00:21:04,VALID,919.372,VALID,0,VALID,97.2977,VALID,0,VALID,18.5344,VALID,19,VALID,0,
2014-10-06, 00:22:04,VALID,919.358,VALID,0,VALID,97.29,VALID,0,VALID,18.5135,VALID,19,VALID,0,
2014-10-06, 00:23:04,VALID,919.346,VALID,0,VALID,97.3053,VALID,0,VALID,18.5149,VALID,19,VALID,0,
2014-10-06, 00:24:04,VALID,919.335,VALID,0,VALID,97.3205,VALID,0,VALID,18.494,VALID,19,VALID,0,
2014-10-06, 00:25:04,VALID,919.327,VALID,0,VALID,97.3358,VALID,0,VALID,18.4759,VALID,19,VALID,0,
2014-10-06, 00:26:04,VALID,919.325,VALID,0,VALID,97.3586,VALID,0,VALID,18.5539,VALID,19,VALID,0,
2014-10-06, 00:27:04,VALID,919.285,VALID,0,VALID,97.3586,VALID,0,VALID,18.5344,VALID,19,VALID,0,
2014-10-06, 00:28:04,VALID,919.301,VALID,0,VALID,97.3739,VALID,0,VALID,18.5539,VALID,19,VALID,0,
2014-10-06, 00:29:04,VALID,919.255,VALID,0,VALID,97.3968,VALID,0,VALID,18.5135,VALID,19,VALID,0,
2014-10-06, 00:30:04,VALID,919.267,VALID,0,VALID,97.3968,VALID,0.107441,VALID,18.533,VALID,19,VALID,0,
2014-10-06, 00:31:04,VALID,919.26,VALID,0,VALID,97.3891,VALID,0,VALID,18.5525,VALID,19,VALID,0,
2014-10-06, 00:32:04,VALID,919.276,VALID,0,VALID,97.412,VALID,0,VALID,18.5734,VALID,19,VALID,0,
2014-10-06, 00:33:04,VALID,919.269,VALID,0,VALID,97.4273,VALID,0,VALID,18.5734,VALID,19,VALID,0,
2014-10-06, 00:34:04,VALID,919.279,VALID,0,VALID,97.4273,VALID,0.107441,VALID,18.533,VALID,19,VALID,0,
2014-10-06, 00:35:04,VALID,919.28,VALID,0,VALID,97.4196,VALID,0,VALID,18.5943,VALID,19,VALID,0,
2014-10-06, 00:36:04,VALID,919.297,VALID,0,VALID,97.4349,VALID,0,VALID,18.5748,VALID,19,VALID,0,
2014-10-06, 00:37:04,VALID,919.302,VALID,0,VALID,97.4273,VALID,0,VALID,18.533,VALID,19,VALID,0,
2014-10-06, 00:38:04,VALID,919.27,VALID,0,VALID,97.4349,VALID,0,VALID,18.5943,VALID,19,VALID,0,
2014-10-06, 00:39:04,VALID,919.277,VALID,0,VALID,97.4501,VALID,0,VALID,18.6138,VALID,19,VALID,0,
2014-10-06, 00:40:04,VALID,919.258,VALID,0,VALID,97.4577,VALID,0,VALID,18.5914,VALID,19,VALID,0,
2014-10-06, 00:41:04,VALID,919.257,VALID,0,VALID,97.4654,VALID,0,VALID,18.6319,VALID,19,VALID,0,
2014-10-06, 00:42:04,VALID,919.262,VALID,0,VALID,97.4654,VALID,0,VALID,18.6513,VALID,19,VALID,0,
2014-10-06, 00:43:04,VALID,919.229,VALID,0,VALID,97.473,VALID,0,VALID,18.6081,VALID,19,VALID,0,
2014-10-06, 00:44:04,VALID,919.215,VALID,0,VALID,97.4654,VALID,0,VALID,18.6319,VALID,19,VALID,0,
2014-10-06, 00:45:04,VALID,919.224,VALID,0,VALID,97.5035,VALID,0,VALID,18.572,VALID,19,VALID,0,
2014-10-06, 00:46:04,VALID,919.212,VALID,0,VALID,97.5035,VALID,0.107441,VALID,18.5135,VALID,19,VALID,0,
2014-10-06, 00:47:04,VALID,919.205,VALID,0,VALID,97.4959,VALID,0.107441,VALID,18.4745,VALID,19,VALID,0,
2014-10-06, 00:48:04,VALID,919.206,VALID,0,VALID,97.5111,VALID,0,VALID,18.494,VALID,19,VALID,0,
2014-10-06, 00:49:04,VALID,919.194,VALID,0,VALID,97.4882,VALID,0,VALID,18.5149,VALID,19,VALID,0,
2014-10-06, 00:50:04,VALID,919.165,VALID,0,VALID,97.5111,VALID,0,VALID,18.455,VALID,19,VALID,0,
2014-10-06, 00:51:04,VALID,919.161,VALID,0,VALID,97.4959,VALID,0,VALID,18.4174,VALID,19,VALID,0,
2014-10-06, 00:52:04,VALID,919.137,VALID,0,VALID,97.5187,VALID,0,VALID,18.3784,VALID,19,VALID,0,
2014-10-06, 00:53:04,VALID,919.145,VALID,0,VALID,97.5187,VALID,0,VALID,18.3589,VALID,19,VALID,0,
2014-10-06, 00:54:04,VALID,919.087,VALID,0,VALID,97.5111,VALID,0,VALID,18.3185,VALID,19,VALID,0,
2014-10-06, 00:55:04,VALID,919.106,VALID,0,VALID,97.534,VALID,0,VALID,18.3185,VALID,19,VALID,0,
2014-10-06, 00:56:04,VALID,919.092,VALID,0,VALID,97.5187,VALID,0,VALID,18.3199,VALID,19,VALID,0,
2014-10-06, 00:57:04,VALID,919.098,VALID,0,VALID,97.534,VALID,0,VALID,18.3199,VALID,19,VALID,0,
2014-10-06, 00:58:04,VALID,919.059,VALID,0,VALID,97.5187,VALID,0,VALID,18.3394,VALID,19,VALID,0,
2014-10-06, 00:59:04,VALID,919.049,VALID,0,VALID,97.5416,VALID,0,VALID,18.338,VALID,19,VALID,0,
2014-10-06, 01:00:04,VALID,918.993,VALID,0,VALID,97.5492,VALID,0,VALID,18.338,VALID,19,VALID,0,
2014-10-06, 01:01:04,VALID,918.981,VALID,0,VALID,97.5645,VALID,0.107441,VALID,18.3575,VALID,19,VALID,0,
2014-10-06, 01:02:04,VALID,918.954,VALID,0,VALID,97.5492,VALID,0,VALID,18.416,VALID,19,VALID,0,
2014-10-06, 01:03:04,VALID,918.926,VALID,0,VALID,97.5645,VALID,0,VALID,18.416,VALID,19,VALID,0,
2014-10-06, 01:04:04,VALID,918.914,VALID,0,VALID,97.5797,VALID,0,VALID,18.4383,VALID,19,VALID,0,
2014-10-06, 01:05:04,VALID,918.906,VALID,0,VALID,97.5797,VALID,0,VALID,18.377,VALID,19,VALID,0,
2014-10-06, 01:06:04,VALID,918.874,VALID,0,VALID,97.5797,VALID,0,VALID,18.3784,VALID,19,VALID,0,
2014-10-06, 01:07:04,VALID,918.88,VALID,0,VALID,97.595,VALID,0,VALID,18.3784,VALID,19,VALID,0,
2014-10-06, 01:08:04,VALID,918.877,VALID,0,VALID,97.595,VALID,0,VALID,18.3185,VALID,19,VALID,0,
2014-10-06, 01:09:04,VALID,918.835,VALID,0,VALID,97.595,VALID,0,VALID,18.299,VALID,19,VALID,0,
2014-10-06, 01:10:04,VALID,918.837,VALID,0,VALID,97.595,VALID,0,VALID,18.299,VALID,19,VALID,0,
2014-10-06, 01:11:04,VALID,918.829,VALID,0,VALID,97.6026,VALID,0,VALID,18.3004,VALID,19,VALID,0,
2014-10-06, 01:12:04,VALID,918.801,VALID,0,VALID,97.6026,VALID,0,VALID,18.2796,VALID,19,VALID,0,
2014-10-06, 01:13:04,VALID,918.787,VALID,0,VALID,97.6255,VALID,0,VALID,18.2601,VALID,19,VALID,0,
2014-10-06, 01:14:04,VALID,918.763,VALID,0,VALID,97.6331,VALID,0,VALID,18.242,VALID,19,VALID,0,
2014-10-06, 01:15:04,VALID,918.758,VALID,0,VALID,97.6255,VALID,0,VALID,18.2615,VALID,19,VALID,0,
2014-10-06, 01:16:04,VALID,918.741,VALID,0,VALID,97.6178,VALID,0,VALID,18.2615,VALID,19,VALID,0,
2014-10-06, 01:17:04,VALID,918.764,VALID,0,VALID,97.6178,VALID,0,VALID,18.2615,VALID,19,VALID,0,
2014-10-06, 01:18:04,VALID,918.724,VALID,0,VALID,97.6255,VALID,0,VALID,18.3004,VALID,19,VALID,0,
2014-10-06, 01:19:04,VALID,918.7,VALID,0,VALID,97.6255,VALID,0,VALID,18.2601,VALID,19,VALID,0,
2014-10-06, 01:20:04,VALID,918.647,VALID,0,VALID,97.6255,VALID,0,VALID,18.2809,VALID,19,VALID,0,
2014-10-06, 01:21:04,VALID,918.616,VALID,0,VALID,97.6407,VALID,0,VALID,18.2809,VALID,19,VALID,0,
2014-10-06, 01:22:04,VALID,918.609,VALID,0,VALID,97.6255,VALID,0,VALID,18.2587,VALID,19,VALID,0,
2014-10-06, 01:23:04,VALID,918.592,VALID,0,VALID,97.6407,VALID,0,VALID,18.3213,VALID,19,VALID,0,
2014-10-06, 01:24:04,VALID,918.59,VALID,0,VALID,97.6483,VALID,0,VALID,18.2809,VALID,19,VALID,0,
2014-10-06, 01:25:04,VALID,918.576,VALID,0,VALID,97.6483,VALID,0,VALID,18.2406,VALID,19,VALID,0,
2014-10-06, 01:26:04,VALID,918.558,VALID,0,VALID,97.6712,VALID,0,VALID,18.2809,VALID,19,VALID,0,
2014-10-06, 01:27:04,VALID,918.553,VALID,0,VALID,97.6407,VALID,0,VALID,18.2392,VALID,19,VALID,0,
2014-10-06, 01:28:04,VALID,918.53,VALID,0,VALID,97.6407,VALID,0,VALID,18.2796,VALID,19,VALID,0,
2014-10-06, 01:29:04,VALID,918.518,VALID,0,VALID,97.656,VALID,0.107441,VALID,18.299,VALID,19,VALID,0,
2014-10-06, 01:30:04,VALID,918.507,VALID,0,VALID,97.6636,VALID,0,VALID,18.2796,VALID,19,VALID,0,
2014-10-06, 01:31:04,VALID,918.492,VALID,0,VALID,97.656,VALID,0,VALID,18.3199,VALID,19,VALID,0,
2014-10-06, 01:32:04,VALID,918.491,VALID,0,VALID,97.6636,VALID,0,VALID,18.3617,VALID,19,VALID,0,
2014-10-06, 01:33:04,VALID,918.484,VALID,0,VALID,97.6788,VALID,0,VALID,18.3004,VALID,19,VALID,0,
2014-10-06, 01:34:04,VALID,918.456,VALID,0,VALID,97.656,VALID,0,VALID,18.3004,VALID,19,VALID,0,
2014-10-06, 01:35:04,VALID,918.442,VALID,0,VALID,97.6865,VALID,0,VALID,18.3185,VALID,19,VALID,0,
2014-10-06, 01:36:04,VALID,918.468,VALID,0,VALID,97.6636,VALID,0,VALID,18.2782,VALID,19,VALID,0,
2014-10-06, 01:37:04,VALID,918.469,VALID,0,VALID,97.6712,VALID,0,VALID,18.3185,VALID,19,VALID,0,
2014-10-06, 01:38:04,VALID,918.436,VALID,0,VALID,97.6636,VALID,0,VALID,18.4202,VALID,19,VALID,0,
2014-10-06, 01:39:04,VALID,918.421,VALID,0,VALID,97.6636,VALID,0,VALID,18.3575,VALID,19,VALID,0,
2014-10-06, 01:40:04,VALID,918.382,VALID,0,VALID,97.656,VALID,0,VALID,18.3756,VALID,19,VALID,0,
2014-10-06, 01:41:04,VALID,918.354,VALID,0,VALID,97.6788,VALID,0,VALID,18.4369,VALID,19,VALID,0,
2014-10-06, 01:42:04,VALID,918.359,VALID,0,VALID,97.6712,VALID,0,VALID,18.4564,VALID,19,VALID,0,
2014-10-06, 01:43:04,VALID,918.32,VALID,0,VALID,97.6788,VALID,0,VALID,18.4564,VALID,19,VALID,0,
2014-10-06, 01:44:04,VALID,918.3,VALID,0,VALID,97.6865,VALID,0,VALID,18.3951,VALID,19,VALID,0,
2014-10-06, 01:45:04,VALID,918.347,VALID,0,VALID,97.6636,VALID,0,VALID,18.3951,VALID,19,VALID,0,
2014-10-06, 01:46:04,VALID,918.29,VALID,0,VALID,97.6941,VALID,0,VALID,18.4578,VALID,19,VALID,0,
2014-10-06, 01:47:04,VALID,918.272,VALID,0,VALID,97.6788,VALID,0,VALID,18.4174,VALID,19,VALID,0,
2014-10-06, 01:48:04,VALID,918.277,VALID,0,VALID,97.6865,VALID,0,VALID,18.4397,VALID,19,VALID,0,
2014-10-06, 01:49:04,VALID,918.221,VALID,0,VALID,97.6941,VALID,0,VALID,18.4202,VALID,19,VALID,0,
2014-10-06, 01:50:04,VALID,918.217,VALID,0,VALID,97.6941,VALID,0,VALID,18.338,VALID,19,VALID,0,
2014-10-06, 01:51:04,VALID,918.216,VALID,0,VALID,97.7093,VALID,0,VALID,18.3575,VALID,19,VALID,0,
2014-10-06, 01:52:04,VALID,918.211,VALID,0,VALID,97.6865,VALID,0,VALID,18.3603,VALID,19,VALID,0,
2014-10-06, 01:53:04,VALID,918.218,VALID,0,VALID,97.6865,VALID,0,VALID,18.3004,VALID,19,VALID,0,
2014-10-06, 01:54:04,VALID,918.204,VALID,0,VALID,97.7169,VALID,0,VALID,18.3004,VALID,19,VALID,0,
2014-10-06, 01:55:04,VALID,918.207,VALID,0,VALID,97.7017,VALID,0,VALID,18.3018,VALID,19,VALID,0,
2014-10-06, 01:56:04,VALID,918.199,VALID,0,VALID,97.7169,VALID,0,VALID,18.2615,VALID,19,VALID,0,
2014-10-06, 01:57:04,VALID,918.185,VALID,0,VALID,97.7322,VALID,0,VALID,18.242,VALID,19,VALID,0,
2014-10-06, 01:58:04,VALID,918.202,VALID,0,VALID,97.7246,VALID,0,VALID,18.2002,VALID,19,VALID,0,
2014-10-06, 01:59:04,VALID,918.192,VALID,0,VALID,97.7398,VALID,0,VALID,18.2238,VALID,19,VALID,0,
2014-10-06, 02:00:04,VALID,918.186,VALID,0,VALID,97.7551,VALID,0,VALID,18.164,VALID,19,VALID,0,
2014-10-06, 02:01:04,VALID,918.192,VALID,0,VALID,97.7398,VALID,0,VALID,18.1835,VALID,19,VALID,0,
2014-10-06, 02:02:04,VALID,918.15,VALID,0,VALID,97.7474,VALID,0,VALID,18.203,VALID,19,VALID,0,
2014-10-06, 02:03:04,VALID,918.17,VALID,0,VALID,97.7322,VALID,0,VALID,18.203,VALID,19,VALID,0,
2014-10-06, 02:04:04,VALID,918.142,VALID,0,VALID,97.7322,VALID,0,VALID,18.2225,VALID,19,VALID,0,
2014-10-06, 02:05:04,VALID,918.153,VALID,0,VALID,97.7169,VALID,0,VALID,18.2433,VALID,19,VALID,0,
2014-10-06, 02:06:04,VALID,918.179,VALID,0,VALID,97.7474,VALID,0,VALID,18.2225,VALID,19,VALID,0,
2014-10-06, 02:07:04,VALID,918.201,VALID,0,VALID,97.7169,VALID,0,VALID,18.242,VALID,19,VALID,0,
2014-10-06, 02:08:04,VALID,918.163,VALID,0,VALID,97.7398,VALID,0,VALID,18.2225,VALID,19,VALID,0,
2014-10-06, 02:09:04,VALID,918.171,VALID,0,VALID,97.7322,VALID,0,VALID,18.2225,VALID,19,VALID,0,
2014-10-06, 02:10:04,VALID,918.151,VALID,0,VALID,97.7246,VALID,0,VALID,18.2225,VALID,19,VALID,0,
2014-10-06, 02:11:04,VALID,918.15,VALID,0,VALID,97.7322,VALID,0,VALID,18.203,VALID,19,VALID,0,
2014-10-06, 02:12:04,VALID,918.122,VALID,0,VALID,97.7474,VALID,0,VALID,18.2225,VALID,19,VALID,0,
2014-10-06, 02:13:04,VALID,918.123,VALID,0,VALID,97.7474,VALID,0,VALID,18.2225,VALID,19,VALID,0,
2014-10-06, 02:14:04,VALID,918.089,VALID,0,VALID,97.7322,VALID,0,VALID,18.2225,VALID,19,VALID,0,
2014-10-06, 02:15:04,VALID,918.058,VALID,0,VALID,97.7474,VALID,0,VALID,18.2225,VALID,19,VALID,0,
2014-10-06, 02:16:04,VALID,918.064,VALID,0,VALID,97.7398,VALID,0,VALID,18.2628,VALID,19,VALID,0,
2014-10-06, 02:17:04,VALID,918.049,VALID,0,VALID,97.7474,VALID,0,VALID,18.242,VALID,19,VALID,0,
2014-10-06, 02:18:04,VALID,918.084,VALID,0,VALID,97.7703,VALID,0,VALID,18.1835,VALID,19,VALID,0,
2014-10-06, 02:19:04,VALID,918.077,VALID,0,VALID,97.7551,VALID,0,VALID,18.203,VALID,19,VALID,0,
2014-10-06, 02:20:04,VALID,918.085,VALID,0,VALID,97.7703,VALID,0,VALID,18.1417,VALID,19,VALID,0,
2014-10-06, 02:21:04,VALID,918.068,VALID,0,VALID,97.7627,VALID,0,VALID,18.125,VALID,19,VALID,0,
2014-10-06, 02:22:04,VALID,918.084,VALID,0,VALID,97.7627,VALID,0,VALID,18.0651,VALID,19,VALID,0,
2014-10-06, 02:23:04,VALID,918.092,VALID,0,VALID,97.7703,VALID,0,VALID,18.0665,VALID,19,VALID,0,
2014-10-06, 02:24:04,VALID,918.071,VALID,0,VALID,97.7856,VALID,0,VALID,18.1069,VALID,19,VALID,0,
2014-10-06, 02:25:04,VALID,918.084,VALID,0,VALID,97.7703,VALID,0,VALID,18.086,VALID,19,VALID,0,
2014-10-06, 02:26:04,VALID,918.048,VALID,0,VALID,97.7627,VALID,0,VALID,18.0665,VALID,19,VALID,0,
2014-10-06, 02:27:04,VALID,918.032,VALID,0,VALID,97.7932,VALID,0,VALID,17.9468,VALID,19,VALID,0,
2014-10-06, 02:28:04,VALID,918.001,VALID,0,VALID,97.7779,VALID,0,VALID,17.9496,VALID,19,VALID,0,
2014-10-06, 02:29:04,VALID,917.991,VALID,0,VALID,97.8008,VALID,0,VALID,17.9301,VALID,19,VALID,0,
2014-10-06, 02:30:04,VALID,917.991,VALID,0,VALID,97.7932,VALID,0,VALID,17.8897,VALID,19,VALID,0,
2014-10-06, 02:31:04,VALID,917.963,VALID,0,VALID,97.8008,VALID,0,VALID,17.9106,VALID,19,VALID,0,
2014-10-06, 02:32:04,VALID,917.961,VALID,0,VALID,97.7856,VALID,0,VALID,17.9092,VALID,19,VALID,0,
2014-10-06, 02:33:04,VALID,917.963,VALID,0,VALID,97.7779,VALID,0,VALID,17.9691,VALID,19,VALID,0,
2014-10-06, 02:34:04,VALID,917.938,VALID,0,VALID,97.7856,VALID,0,VALID,18.0457,VALID,19,VALID,0,
2014-10-06, 02:35:04,VALID,917.918,VALID,0,VALID,97.7932,VALID,0,VALID,17.9886,VALID,19,VALID,0,
2014-10-06, 02:36:04,VALID,917.87,VALID,0,VALID,97.8237,VALID,0,VALID,17.8716,VALID,19,VALID,0,
2014-10-06, 02:37:04,VALID,917.86,VALID,0,VALID,97.8084,VALID,0,VALID,17.8911,VALID,19,VALID,0,
2014-10-06, 02:38:04,VALID,917.861,VALID,0,VALID,97.7932,VALID,0,VALID,17.8911,VALID,19,VALID,0,
2014-10-06, 02:39:04,VALID,917.815,VALID,0,VALID,97.8008,VALID,0,VALID,17.9509,VALID,19,VALID,0,
2014-10-06, 02:40:04,VALID,917.844,VALID,0,VALID,97.7856,VALID,0,VALID,17.9301,VALID,19,VALID,0,
2014-10-06, 02:41:04,VALID,917.824,VALID,0,VALID,97.7551,VALID,0,VALID,18.0275,VALID,19,VALID,0,
2014-10-06, 02:42:04,VALID,917.823,VALID,0,VALID,97.7779,VALID,0,VALID,18.1069,VALID,19,VALID,0,
2014-10-06, 02:43:04,VALID,917.88,VALID,0,VALID,97.8008,VALID,0,VALID,18.0665,VALID,19,VALID,0,
2014-10-06, 02:44:04,VALID,917.854,VALID,0,VALID,97.7932,VALID,0,VALID,18.008,VALID,19,VALID,0,
2014-10-06, 02:45:04,VALID,917.794,VALID,0,VALID,97.8008,VALID,0,VALID,17.9677,VALID,19,VALID,0,
2014-10-06, 02:46:04,VALID,917.794,VALID,0,VALID,97.8084,VALID,0,VALID,18.0679,VALID,19,VALID,0,
2014-10-06, 02:47:04,VALID,917.754,VALID,0,VALID,97.8084,VALID,0,VALID,18.0067,VALID,19,VALID,0,
2014-10-06, 02:48:04,VALID,917.753,VALID,0,VALID,97.7932,VALID,0,VALID,18.0275,VALID,19,VALID,0,
2014-10-06, 02:49:04,VALID,917.747,VALID,0,VALID,97.7932,VALID,0,VALID,18.0275,VALID,19,VALID,0,
2014-10-06, 02:50:04,VALID,917.742,VALID,0,VALID,97.7779,VALID,0.107441,VALID,18.0457,VALID,19,VALID,0,
2014-10-06, 02:51:04,VALID,917.742,VALID,0,VALID,97.8008,VALID,0.107441,VALID,18.0429,VALID,19,VALID,0,
2014-10-06, 02:52:04,VALID,917.721,VALID,0,VALID,97.7932,VALID,0.107441,VALID,18.1041,VALID,19,VALID,0,
2014-10-06, 02:53:04,VALID,917.692,VALID,0,VALID,97.8008,VALID,0,VALID,18.0651,VALID,19,VALID,0,
2014-10-06, 02:54:04,VALID,917.684,VALID,0,VALID,97.8008,VALID,0.107441,VALID,18.0457,VALID,19,VALID,0,
2014-10-06, 02:55:04,VALID,917.672,VALID,0,VALID,97.816,VALID,0,VALID,18.008,VALID,19,VALID,0,
2014-10-06, 02:56:04,VALID,917.653,VALID,0,VALID,97.816,VALID,0,VALID,17.9468,VALID,19,VALID,0,
2014-10-06, 02:57:04,VALID,917.644,VALID,0,VALID,97.8084,VALID,0,VALID,18.0067,VALID,19,VALID,0,
2014-10-06, 02:58:04,VALID,917.657,VALID,0,VALID,97.8008,VALID,0,VALID,18.0067,VALID,19,VALID,0,
2014-10-06, 02:59:04,VALID,917.646,VALID,0,VALID,97.8008,VALID,0,VALID,18.008,VALID,19,VALID,0,
2014-10-06, 03:00:04,VALID,917.626,VALID,0,VALID,97.8084,VALID,0,VALID,18.0289,VALID,19,VALID,0,
2014-10-06, 03:01:04,VALID,917.627,VALID,0,VALID,97.8084,VALID,0,VALID,17.9677,VALID,19,VALID,0,
2014-10-06, 03:02:04,VALID,917.608,VALID,0,VALID,97.7856,VALID,0,VALID,17.9677,VALID,19,VALID,0,
2014-10-06, 03:03:04,VALID,917.611,VALID,0,VALID,97.8237,VALID,0,VALID,17.9886,VALID,19,VALID,0,
2014-10-06, 03:04:04,VALID,917.585,VALID,0,VALID,97.8313,VALID,0,VALID,17.9691,VALID,19,VALID,0,
2014-10-06, 03:05:04,VALID,917.591,VALID,0,VALID,97.8237,VALID,0,VALID,18.008,VALID,19,VALID,0,
2014-10-06, 03:06:04,VALID,917.589,VALID,0,VALID,97.816,VALID,0,VALID,18.0289,VALID,19,VALID,0,
2014-10-06, 03:07:04,VALID,917.57,VALID,0,VALID,97.8313,VALID,0,VALID,17.926,VALID,19,VALID,0,
2014-10-06, 03:08:04,VALID,917.566,VALID,0,VALID,97.8237,VALID,0.107441,VALID,18.008,VALID,19,VALID,0,
2014-10-06, 03:09:04,VALID,917.544,VALID,0,VALID,97.8084,VALID,0.107441,VALID,18.0275,VALID,19,VALID,0,
2014-10-06, 03:10:04,VALID,917.558,VALID,0,VALID,97.816,VALID,0.107441,VALID,17.9872,VALID,19,VALID,0,
2014-10-06, 03:11:04,VALID,917.566,VALID,0,VALID,97.816,VALID,0.107441,VALID,18.008,VALID,19,VALID,0,
2014-10-06, 03:12:04,VALID,917.547,VALID,0,VALID,97.8237,VALID,0,VALID,17.9677,VALID,19,VALID,0,
2014-10-06, 03:13:04,VALID,917.531,VALID,0,VALID,97.8389,VALID,0,VALID,17.9287,VALID,19,VALID,0,
2014-10-06, 03:14:04,VALID,917.514,VALID,0,VALID,97.816,VALID,0.107441,VALID,17.9677,VALID,19,VALID,0,
2014-10-06, 03:15:04,VALID,917.515,VALID,0,VALID,97.8008,VALID,0.107441,VALID,18.0067,VALID,19,VALID,0,
2014-10-06, 03:16:04,VALID,917.495,VALID,0,VALID,97.8008,VALID,0.107441,VALID,18.0067,VALID,19,VALID,0,
2014-10-06, 03:17:04,VALID,917.486,VALID,0,VALID,97.8313,VALID,0.107441,VALID,18.008,VALID,19,VALID,0,
2014-10-06, 03:18:04,VALID,917.485,VALID,0,VALID,97.8542,VALID,0,VALID,17.9482,VALID,19,VALID,0,
2014-10-06, 03:19:04,VALID,917.475,VALID,0,VALID,97.8389,VALID,0.107441,VALID,17.8286,VALID,19,VALID,0,
2014-10-06, 03:20:04,VALID,917.468,VALID,0,VALID,97.8389,VALID,0,VALID,17.9092,VALID,19,VALID,0,
2014-10-06, 03:21:04,VALID,917.468,VALID,0,VALID,97.7932,VALID,0,VALID,18.0457,VALID,19,VALID,0,
2014-10-06, 03:22:04,VALID,917.436,VALID,0,VALID,97.7779,VALID,0,VALID,18.1654,VALID,19,VALID,0,
2014-10-06, 03:23:04,VALID,917.447,VALID,0,VALID,97.7932,VALID,0,VALID,18.1264,VALID,19,VALID,0,
2014-10-06, 03:24:04,VALID,917.462,VALID,0,VALID,97.8237,VALID,0,VALID,18.047,VALID,19,VALID,0,
2014-10-06, 03:25:04,VALID,917.489,VALID,0,VALID,97.816,VALID,0,VALID,18.0679,VALID,19,VALID,0,
2014-10-06, 03:26:04,VALID,917.495,VALID,0,VALID,97.816,VALID,0,VALID,18.0679,VALID,19,VALID,0,
2014-10-06, 03:27:04,VALID,917.512,VALID,0,VALID,97.8389,VALID,0,VALID,17.9691,VALID,19,VALID,0,
2014-10-06, 03:28:04,VALID,917.501,VALID,0,VALID,97.8465,VALID,0,VALID,17.9482,VALID,19,VALID,0,
2014-10-06, 03:29:04,VALID,917.491,VALID,0,VALID,97.8389,VALID,0,VALID,17.9691,VALID,19,VALID,0,
2014-10-06, 03:30:04,VALID,917.472,VALID,0,VALID,97.8389,VALID,0,VALID,17.9886,VALID,19,VALID,0,
2014-10-06, 03:31:04,VALID,917.485,VALID,0,VALID,97.8313,VALID,0,VALID,18.0303,VALID,19,VALID,0,
2014-10-06, 03:32:04,VALID,917.467,VALID,0,VALID,97.8389,VALID,0,VALID,17.9496,VALID,19,VALID,0,
2014-10-06, 03:33:04,VALID,917.47,VALID,0,VALID,97.8465,VALID,0,VALID,17.9509,VALID,19,VALID,0,
2014-10-06, 03:34:04,VALID,917.477,VALID,0,VALID,97.8618,VALID,0,VALID,17.9509,VALID,19,VALID,0,
2014-10-06, 03:35:04,VALID,917.504,VALID,0,VALID,97.8542,VALID,0.107441,VALID,17.8884,VALID,19,VALID,0,
2014-10-06, 03:36:04,VALID,917.506,VALID,0,VALID,97.8389,VALID,0,VALID,17.9106,VALID,19,VALID,0,
2014-10-06, 03:37:04,VALID,917.496,VALID,0,VALID,97.8542,VALID,0,VALID,17.8925,VALID,19,VALID,0,
2014-10-06, 03:38:04,VALID,917.505,VALID,0,VALID,97.8542,VALID,0,VALID,17.7896,VALID,19,VALID,0,
2014-10-06, 03:39:04,VALID,917.452,VALID,0,VALID,97.8542,VALID,0.107441,VALID,17.7701,VALID,19,VALID,0,
2014-10-06, 03:40:04,VALID,917.448,VALID,0,VALID,97.8465,VALID,0.107441,VALID,17.8508,VALID,19,VALID,0,
2014-10-06, 03:41:04,VALID,917.457,VALID,0,VALID,97.8618,VALID,0,VALID,17.8118,VALID,19,VALID,0,
2014-10-06, 03:42:04,VALID,917.475,VALID,0,VALID,97.8542,VALID,0,VALID,17.7923,VALID,19,VALID,0,
2014-10-06, 03:43:04,VALID,917.475,VALID,0,VALID,97.8618,VALID,0,VALID,17.8326,VALID,19,VALID,0,
2014-10-06, 03:44:04,VALID,917.484,VALID,0,VALID,97.8618,VALID,0,VALID,17.7714,VALID,19,VALID,0,
2014-10-06, 03:45:04,VALID,917.491,VALID,0,VALID,97.8542,VALID,0,VALID,17.7936,VALID,19,VALID,0,
2014-10-06, 03:46:04,VALID,917.456,VALID,0,VALID,97.8618,VALID,0,VALID,17.7547,VALID,19,VALID,0,
2014-10-06, 03:47:04,VALID,917.44,VALID,0,VALID,97.877,VALID,0,VALID,17.7365,VALID,19,VALID,0,
2014-10-06, 03:48:04,VALID,917.432,VALID,0,VALID,97.8618,VALID,0,VALID,17.7741,VALID,19,VALID,0,
2014-10-06, 03:49:04,VALID,917.409,VALID,0,VALID,97.8618,VALID,0,VALID,17.752,VALID,19,VALID,0,
2014-10-06, 03:50:04,VALID,917.38,VALID,0,VALID,97.8389,VALID,0.107441,VALID,17.8118,VALID,19,VALID,0,
2014-10-06, 03:51:04,VALID,917.369,VALID,0,VALID,97.8465,VALID,0.107441,VALID,17.8716,VALID,19,VALID,0,
2014-10-06, 03:52:04,VALID,917.355,VALID,0,VALID,97.8542,VALID,0,VALID,17.8326,VALID,19,VALID,0,
2014-10-06, 03:53:04,VALID,917.356,VALID,0,VALID,97.8465,VALID,0.107441,VALID,17.8145,VALID,19,VALID,0,
2014-10-06, 03:54:04,VALID,917.349,VALID,0,VALID,97.8694,VALID,0,VALID,17.7936,VALID,19,VALID,0,
2014-10-06, 03:55:04,VALID,917.397,VALID,0,VALID,97.8694,VALID,0,VALID,17.7533,VALID,19,VALID,0,
2014-10-06, 03:56:04,VALID,917.403,VALID,0,VALID,97.8694,VALID,0,VALID,17.7157,VALID,19,VALID,0,
2014-10-06, 03:57:04,VALID,917.385,VALID,0,VALID,97.8923,VALID,0,VALID,17.6962,VALID,19,VALID,0,
2014-10-06, 03:58:04,VALID,917.435,VALID,0,VALID,97.877,VALID,0,VALID,17.6364,VALID,19,VALID,0,
2014-10-06, 03:59:04,VALID,917.424,VALID,0,VALID,97.8847,VALID,0,VALID,17.717,VALID,19,VALID,0,
2014-10-06, 04:00:04,VALID,917.427,VALID,0,VALID,97.8694,VALID,0.107441,VALID,17.7338,VALID,19,VALID,0,